When you browse on this site, cookies collect data to enhance your experience and personalize the content and advertising you see.
Visit our Privacy Policy to learn more. By continuing to use the site, you agree to this use of cookies and data.
  • In Latvia
  • List of Countries
  • For 7 days
  • Water Temperature
  • Satellite Maps
  • Weather Map
  • Weather Widgets
  • user-avatar
    Login

    Hourly Weather Sydney

    Today, 24 May, Friday

    Time Temperature Precipitation Wind Pressure Humidity
    00:00 +17°C° 0 mm 2 mps 767 mmHg 86%
    01:00 +17°C° 0 mm 2 mps 767 mmHg 88%
    02:00 +16°C° 0 mm 2 mps 767 mmHg 87%
    03:00 +16°C° 0 mm 2 mps 767 mmHg 86%
    04:00 +15°C° 0 mm 2 mps 766 mmHg 83%
    05:00 +15°C° 0 mm 2 mps 766 mmHg 81%
    06:00 +15°C° 0 mm 2 mps 766 mmHg 79%
    07:00 +15°C° 0 mm 2 mps 766 mmHg 77%
    08:00 +17°C° 0 mm 2 mps 766 mmHg 68%
    09:00 +19°C° 0 mm 2 mps 766 mmHg 59%
    10:00 +20°C° 0 mm 2 mps 766 mmHg 48%
    11:00 +23°C° 0 mm 2 mps 766 mmHg 43%
    12:00 +25°C° 0 mm 1 mps 765 mmHg 38%
    13:00 +26°C° 0 mm 1 mps 765 mmHg 32%
    14:00 +26°C° 0 mm 1 mps 764 mmHg 34%
    15:00 +25°C° 0 mm 1 mps 764 mmHg 36%
    16:00 +24°C° 0 mm 1 mps 764 mmHg 39%
    17:00 +23°C° 0 mm 1 mps 764 mmHg 41%
    18:00 +22°C° 0 mm 1 mps 765 mmHg 44%
    19:00 +21°C° 0 mm 1 mps 765 mmHg 46%
    20:00 +20°C° 0 mm 1 mps 765 mmHg 46%
    21:00 +20°C° 0 mm 1 mps 765 mmHg 47%
    22:00 +19°C° 0 mm 1 mps 765 mmHg 47%
    23:00 +18°C° 0 mm 2 mps 765 mmHg 47%

    Tomorrow, 25 May, Saturday

    Time Temperature Precipitation Wind Pressure Humidity
    00:00 +17°C° 0 mm 2 mps 765 mmHg 46%
    01:00 +17°C° 0 mm 2 mps 765 mmHg 46%
    02:00 +16°C° 0 mm 2 mps 764 mmHg 46%
    03:00 +16°C° 0 mm 2 mps 764 mmHg 46%
    04:00 +15°C° 0 mm 2 mps 764 mmHg 47%
    05:00 +15°C° 0 mm 2 mps 764 mmHg 48%
    06:00 +15°C° 0 mm 2 mps 764 mmHg 49%
    07:00 +15°C° 0 mm 2 mps 764 mmHg 50%
    08:00 +17°C° 0 mm 2 mps 764 mmHg 45%
    09:00 +19°C° 0 mm 2 mps 764 mmHg 41%
    10:00 +21°C° 0 mm 2 mps 764 mmHg 37%
    11:00 +24°C° 0 mm 2 mps 763 mmHg 35%
    12:00 +25°C° 0 mm 1 mps 762 mmHg 33%
    13:00 +27°C° 0 mm 1 mps 762 mmHg 31%
    14:00 +26°C° 0 mm 2 mps 761 mmHg 32%
    15:00 +26°C° 0 mm 3 mps 761 mmHg 34%
    16:00 +25°C° 0 mm 3 mps 761 mmHg 36%
    17:00 +23°C° 0 mm 4 mps 761 mmHg 39%
    18:00 +21°C° 0 mm 4 mps 761 mmHg 42%
    19:00 +20°C° 0 mm 4 mps 761 mmHg 45%
    20:00 +19°C° 0 mm 4 mps 761 mmHg 44%
    21:00 +19°C° 0 mm 4 mps 761 mmHg 42%
    22:00 +18°C° 0 mm 4 mps 761 mmHg 41%
    23:00 +18°C° 0 mm 4 mps 761 mmHg 43%

    Day after tomorrow, 26 May, Sunday

    Time Temperature Precipitation Wind Pressure Humidity
    00:00 +17°C° 0 mm 4 mps 761 mmHg 45%
    01:00 +17°C° 0 mm 4 mps 760 mmHg 47%
    02:00 +17°C° 0 mm 4 mps 760 mmHg 48%
    03:00 +17°C° 0 mm 4 mps 760 mmHg 48%
    04:00 +16°C° 0 mm 5 mps 759 mmHg 48%
    05:00 +15°C° 0 mm 4 mps 760 mmHg 50%
    06:00 +15°C° 0 mm 4 mps 760 mmHg 51%
    07:00 +15°C° 0 mm 4 mps 760 mmHg 52%
    08:00 +17°C° 0.2 mm 3 mps 760 mmHg 54%
    09:00 +17°C° 0.2 mm 3 mps 760 mmHg 56%
    10:00 +18°C° 0.2 mm 3 mps 760 mmHg 58%
    11:00 +20°C° 0 mm 3 mps 759 mmHg 52%
    12:00 +21°C° 0 mm 3 mps 759 mmHg 45%
    13:00 +24°C° 0 mm 2 mps 758 mmHg 39%
    14:00 +24°C° 0 mm 3 mps 758 mmHg 39%
    15:00 +22°C° 0 mm 4 mps 758 mmHg 39%
    16:00 +22°C° 0 mm 4 mps 758 mmHg 39%
    17:00 +21°C° 0 mm 5 mps 758 mmHg 42%
    18:00 +19°C° 0 mm 5 mps 759 mmHg 45%
    19:00 +17°C° 0 mm 5 mps 759 mmHg 48%
    20:00 +16°C° 0 mm 5 mps 759 mmHg 50%
    21:00 +15°C° 0 mm 5 mps 759 mmHg 53%
    22:00 +14°C° 0 mm 4 mps 759 mmHg 56%
    23:00 +14°C° 0 mm 4 mps 759 mmHg 58%

    27 May, Monday

    Time Temperature Precipitation Wind Pressure Humidity
    00:00 +13°C° 0 mm 4 mps 759 mmHg 59%
    01:00 +13°C° 0 mm 4 mps 759 mmHg 60%
    02:00 +13°C° 0 mm 4 mps 758 mmHg 59%
    03:00 +13°C° 0 mm 4 mps 758 mmHg 58%
    04:00 +12°C° 0 mm 4 mps 758 mmHg 57%
    05:00 +12°C° 0 mm 4 mps 758 mmHg 56%
    06:00 +12°C° 0 mm 5 mps 757 mmHg 56%
    07:00 +12°C° 0 mm 5 mps 757 mmHg 56%
    08:00 +14°C° 0 mm 6 mps 757 mmHg 51%
    09:00 +16°C° 0 mm 6 mps 757 mmHg 46%
    10:00 +17°C° 0 mm 7 mps 757 mmHg 41%
    11:00 +17°C° 0 mm 8 mps 757 mmHg 39%
    12:00 +17°C° 0 mm 9 mps 756 mmHg 37%
    13:00 +17°C° 0 mm 10 mps 756 mmHg 35%
    14:00 +17°C° 0 mm 10 mps 756 mmHg 35%
    15:00 +16°C° 0 mm 10 mps 756 mmHg 34%
    16:00 +14°C° 0 mm 10 mps 757 mmHg 34%
    17:00 +13°C° 0 mm 10 mps 757 mmHg 38%
    18:00 +12°C° 0 mm 9 mps 758 mmHg 41%
    19:00 +11°C° 0 mm 9 mps 759 mmHg 45%
    20:00 +11°C° 0 mm 9 mps 759 mmHg 46%
    21:00 +11°C° 0 mm 8 mps 760 mmHg 47%
    22:00 +10°C° 0 mm 8 mps 760 mmHg 49%
    23:00 +10°C° 0 mm 7 mps 760 mmHg 50%

    28 May, Tuesday

    Time Temperature Precipitation Wind Pressure Humidity
    00:00 +10°C° 0 mm 7 mps 760 mmHg 52%
    01:00 +9°C° 0 mm 7 mps 760 mmHg 53%
    02:00 +9°C° 0 mm 6 mps 760 mmHg 55%
    03:00 +9°C° 0 mm 6 mps 760 mmHg 56%
    04:00 +8°C° 0 mm 6 mps 760 mmHg 58%
    05:00 +8°C° 0 mm 5 mps 760 mmHg 59%
    06:00 +7°C° 0 mm 5 mps 760 mmHg 61%
    07:00 +7°C° 0 mm 5 mps 760 mmHg 62%
    08:00 +9°C° 0 mm 5 mps 761 mmHg 57%
    09:00 +10°C° 0 mm 5 mps 761 mmHg 53%
    10:00 +11°C° 0 mm 6 mps 761 mmHg 48%
    11:00 +14°C° 0 mm 5 mps 760 mmHg 44%
    12:00 +15°C° 0 mm 5 mps 759 mmHg 39%
    13:00 +17°C° 0 mm 5 mps 758 mmHg 35%
    14:00 +17°C° 0 mm 5 mps 758 mmHg 37%
    15:00 +17°C° 0 mm 5 mps 758 mmHg 38%
    16:00 +17°C° 0 mm 6 mps 758 mmHg 39%
    17:00 +16°C° 0 mm 6 mps 758 mmHg 42%
    18:00 +15°C° 0 mm 6 mps 758 mmHg 45%
    19:00 +14°C° 0 mm 6 mps 758 mmHg 48%
    20:00 +13°C° 0 mm 6 mps 758 mmHg 51%
    21:00 +13°C° 0 mm 6 mps 758 mmHg 54%
    22:00 +11°C° 0 mm 6 mps 758 mmHg 57%
    23:00 +11°C° 0 mm 6 mps 757 mmHg 57%

    29 May, Wednesday

    Time Temperature Precipitation Wind Pressure Humidity
    00:00 +11°C° 0 mm 6 mps 757 mmHg 58%
    01:00 +11°C° 0 mm 6 mps 757 mmHg 58%
    02:00 +11°C° 0 mm 6 mps 756 mmHg 59%
    03:00 +11°C° 0 mm 6 mps 756 mmHg 59%
    04:00 +12°C° 0 mm 7 mps 755 mmHg 59%
    05:00 +12°C° 0 mm 7 mps 755 mmHg 58%
    06:00 +12°C° 0 mm 7 mps 756 mmHg 57%
    07:00 +12°C° 0 mm 7 mps 756 mmHg 56%
    08:00 +14°C° 0 mm 7 mps 755 mmHg 51%
    09:00 +16°C° 0 mm 7 mps 755 mmHg 47%
    10:00 +17°C° 0 mm 7 mps 755 mmHg 42%
    11:00 +17°C° 0 mm 8 mps 755 mmHg 42%
    12:00 +17°C° 0 mm 8 mps 754 mmHg 42%
    13:00 +17°C° 0 mm 8 mps 754 mmHg 42%
    14:00 +17°C° 0 mm 8 mps 754 mmHg 42%
    15:00 +17°C° 0 mm 8 mps 754 mmHg 41%
    16:00 +17°C° 0 mm 7 mps 754 mmHg 41%
    17:00 +16°C° 0 mm 7 mps 755 mmHg 44%
    18:00 +15°C° 0 mm 7 mps 756 mmHg 47%
    19:00 +14°C° 0 mm 7 mps 757 mmHg 50%
    20:00 +12°C° 0 mm 7 mps 757 mmHg 51%
    21:00 +11°C° 0 mm 7 mps 758 mmHg 51%
    22:00 +10°C° 0 mm 8 mps 758 mmHg 52%
    23:00 +10°C° 0 mm 7 mps 758 mmHg 51%
    Show more